Time,TemperatureF,DewpointF,PressureIn,WindDirection,WindDirectionDegrees,WindSpeedMPH,WindSpeedGustMPH,Humidity,HourlyPrecipIn,Conditions,Clouds,dailyrainin,SoftwareType,DateUTC
2013-03-15 00:09:00,27.8,23.0,30.03,SSW,195,0.0,-999.0,83,-99.99,,,0.00,weatherlink.com 1.10,2013-03-15 05:09:00,
2013-03-15 00:26:00,27.6,23.0,30.02,SSW,195,0.0,-999.0,83,-99.99,,,0.00,weatherlink.com 1.10,2013-03-15 05:26:00,
2013-03-15 00:42:00,27.3,23.0,30.03,SSW,195,0.0,-999.0,83,-99.99,,,0.00,weatherlink.com 1.10,2013-03-15 05:42:00,
2013-03-15 00:58:00,27.3,23.0,30.03,SSW,195,0.0,-999.0,84,-99.99,,,0.00,weatherlink.com 1.10,2013-03-15 05:58:00,
2013-03-15 01:15:00,27.3,23.0,30.02,SSW,195,0.0,-999.0,84,-99.99,,,0.00,weatherlink.com 1.10,2013-03-15 06:15:00,
2013-03-15 01:31:00,27.0,23.0,30.00,SSW,195,0.0,-999.0,84,-99.99,,,0.00,weatherlink.com 1.10,2013-03-15 06:31:00,
2013-03-15 01:47:00,27.1,23.0,30.00,SSW,195,0.0,-999.0,85,-99.99,,,0.00,weatherlink.com 1.10,2013-03-15 06:47:00,
2013-03-15 02:04:00,27.2,23.0,29.98,SSW,195,1.0,-999.0,85,-99.99,,,0.00,weatherlink.com 1.10,2013-03-15 07:04:00,
2013-03-15 02:20:00,27.5,24.0,30.01,SSW,195,1.0,-999.0,85,-99.99,,,0.00,weatherlink.com 1.10,2013-03-15 07:20:00,
2013-03-15 02:37:00,27.8,24.0,30.00,SSW,195,0.0,-999.0,86,-99.99,,,0.00,weatherlink.com 1.10,2013-03-15 07:37:00,
2013-03-15 02:53:00,28.4,25.0,30.00,WSW,241,2.0,-999.0,86,-99.99,,,0.00,weatherlink.com 1.10,2013-03-15 07:53:00,
2013-03-15 03:09:00,28.7,25.0,30.00,WSW,250,1.0,-999.0,85,-99.99,,,0.00,weatherlink.com 1.10,2013-03-15 08:09:00,
2013-03-15 03:26:00,28.9,25.0,29.99,WSW,250,1.0,-999.0,85,-99.99,,,0.00,weatherlink.com 1.10,2013-03-15 08:26:00,
2013-03-15 03:42:00,29.4,25.0,29.99,West,270,4.0,-999.0,85,-99.99,,,0.00,weatherlink.com 1.10,2013-03-15 08:42:00,
2013-03-15 03:58:00,29.7,25.0,29.99,WNW,290,5.0,-999.0,84,-99.99,,,0.00,weatherlink.com 1.10,2013-03-15 08:58:00,
2013-03-15 04:14:00,30.0,26.0,29.99,WNW,295,5.0,-999.0,84,-99.99,,,0.00,weatherlink.com 1.10,2013-03-15 09:14:00,
2013-03-15 04:31:00,30.2,26.0,29.98,WNW,299,4.0,-999.0,84,-99.99,,,0.00,weatherlink.com 1.10,2013-03-15 09:31:00,
2013-03-15 04:47:00,30.4,26.0,29.99,WNW,296,3.0,-999.0,84,-99.99,,,0.00,weatherlink.com 1.10,2013-03-15 09:47:00,
2013-03-15 05:03:00,30.5,26.0,29.97,NW,309,2.0,-999.0,84,-99.99,,,0.00,weatherlink.com 1.10,2013-03-15 10:03:00,
2013-03-15 05:20:00,30.6,26.0,29.96,North,359,3.0,-999.0,84,-99.99,,,0.00,weatherlink.com 1.10,2013-03-15 10:20:00,
2013-03-15 05:36:00,30.6,27.0,29.96,NNE,25,1.0,-999.0,85,-99.99,,,0.00,weatherlink.com 1.10,2013-03-15 10:36:00,
2013-03-15 05:52:00,30.7,27.0,29.95,NNW,344,1.0,-999.0,86,-99.99,,,0.00,weatherlink.com 1.10,2013-03-15 10:52:00,
2013-03-15 06:09:00,30.8,27.0,29.95,NNE,12,2.0,-999.0,86,-99.99,,,0.00,weatherlink.com 1.10,2013-03-15 11:09:00,
2013-03-15 06:25:00,30.8,27.0,29.96,NNE,13,1.0,-999.0,86,-99.99,,,0.01,weatherlink.com 1.10,2013-03-15 11:25:00,
2013-03-15 06:42:00,30.9,27.0,29.97,NNE,12,1.0,-999.0,87,-99.99,,,0.01,weatherlink.com 1.10,2013-03-15 11:42:00,
2013-03-15 06:58:00,31.0,28.0,29.96,NNE,12,2.0,-999.0,87,-99.99,,,0.01,weatherlink.com 1.10,2013-03-15 11:58:00,
2013-03-15 07:14:00,31.1,28.0,29.95,NNE,12,3.0,-999.0,88,-99.99,,,0.01,weatherlink.com 1.10,2013-03-15 12:14:00,
2013-03-15 07:30:00,31.3,28.0,29.95,NNE,14,5.0,-999.0,88,-99.99,,,0.02,weatherlink.com 1.10,2013-03-15 12:30:00,
2013-03-15 07:47:00,31.5,28.0,29.94,NNE,24,2.0,-999.0,88,-99.99,,,0.02,weatherlink.com 1.10,2013-03-15 12:47:00,
2013-03-15 08:03:00,31.6,29.0,29.94,North,11,8.0,-999.0,89,-99.99,,,0.02,weatherlink.com 1.10,2013-03-15 13:03:00,
2013-03-15 08:19:00,31.8,29.0,29.95,North,4,5.0,-999.0,89,-99.99,,,0.02,weatherlink.com 1.10,2013-03-15 13:19:00,
2013-03-15 08:36:00,32.0,29.0,29.94,North,1,4.0,-999.0,89,-99.99,,,0.03,weatherlink.com 1.10,2013-03-15 13:36:00,
2013-03-15 08:52:00,32.1,29.0,29.94,NNE,14,4.0,-999.0,89,-99.99,,,0.03,weatherlink.com 1.10,2013-03-15 13:52:00,
2013-03-15 09:08:00,32.3,29.0,29.95,North,6,2.0,-999.0,89,-99.99,,,0.04,weatherlink.com 1.10,2013-03-15 14:08:00,
2013-03-15 09:24:00,32.5,30.0,29.95,North,8,1.0,-999.0,89,-99.99,,,0.04,weatherlink.com 1.10,2013-03-15 14:24:00,
2013-03-15 09:57:00,32.8,30.0,29.94,North,6,7.0,-999.0,88,-99.99,,,0.07,weatherlink.com 1.10,2013-03-15 14:57:00,
2013-03-15 10:14:00,32.9,30.0,29.94,North,6,0.0,-999.0,88,-99.99,,,0.08,weatherlink.com 1.10,2013-03-15 15:14:00,
2013-03-15 10:30:00,32.9,30.0,29.93,North,10,0.0,-999.0,88,-99.99,,,0.10,weatherlink.com 1.10,2013-03-15 15:30:00,
2013-03-15 10:46:00,32.9,29.0,29.93,North,354,5.0,-999.0,87,-99.99,,,0.12,weatherlink.com 1.10,2013-03-15 15:46:00,
2013-03-15 11:02:00,32.9,29.0,29.92,North,359,3.0,-999.0,87,-99.99,,,0.12,weatherlink.com 1.10,2013-03-15 16:02:00,
2013-03-15 11:19:00,32.9,29.0,29.92,East,96,10.0,-999.0,87,-99.99,,,0.12,weatherlink.com 1.10,2013-03-15 16:19:00,
2013-03-15 11:35:00,32.9,30.0,29.93,NNE,28,5.0,-999.0,88,-99.99,,,0.12,weatherlink.com 1.10,2013-03-15 16:35:00,
2013-03-15 11:51:00,32.9,30.0,29.93,North,7,10.0,-999.0,88,-99.99,,,0.13,weatherlink.com 1.10,2013-03-15 16:51:00,
2013-03-15 12:08:00,33.0,30.0,29.93,NNW,331,3.0,-999.0,88,-99.99,,,0.13,weatherlink.com 1.10,2013-03-15 17:08:00,
2013-03-15 12:24:00,33.2,30.0,29.93,East,81,1.0,-999.0,88,-99.99,,,0.13,weatherlink.com 1.10,2013-03-15 17:24:00,
2013-03-15 12:40:00,33.3,30.0,29.93,North,356,4.0,-999.0,88,-99.99,,,0.13,weatherlink.com 1.10,2013-03-15 17:40:00,
2013-03-15 12:56:00,33.4,30.0,29.92,ENE,73,5.0,-999.0,88,-99.99,,,0.13,weatherlink.com 1.10,2013-03-15 17:56:00,
2013-03-15 13:13:00,33.5,30.0,29.93,North,6,3.0,-999.0,88,-99.99,,,0.13,weatherlink.com 1.10,2013-03-15 18:13:00,
2013-03-15 13:29:00,33.5,30.0,29.93,NE,55,2.0,-999.0,88,-99.99,,,0.13,weatherlink.com 1.10,2013-03-15 18:29:00,
2013-03-15 13:46:00,33.7,30.0,29.93,NNE,27,2.0,-999.0,87,-99.99,,,0.13,weatherlink.com 1.10,2013-03-15 18:46:00,
2013-03-15 14:02:00,33.7,30.0,29.93,NNE,14,5.0,-999.0,87,-99.99,,,0.13,weatherlink.com 1.10,2013-03-15 19:02:00,
2013-03-15 14:20:00,33.7,30.0,29.92,North,356,1.0,-999.0,87,-99.99,,,0.13,weatherlink.com 1.10,2013-03-15 19:20:00,
2013-03-15 14:52:00,33.9,30.0,29.90,East,89,7.0,-999.0,86,-99.99,,,0.13,weatherlink.com 1.10,2013-03-15 19:52:00,
2013-03-15 15:09:00,34.0,30.0,29.89,East,94,5.0,-999.0,85,-99.99,,,0.13,weatherlink.com 1.10,2013-03-15 20:09:00,
2013-03-15 15:25:00,34.2,30.0,29.89,NE,38,3.0,-999.0,84,-99.99,,,0.13,weatherlink.com 1.10,2013-03-15 20:25:00,
2013-03-15 15:41:00,34.1,30.0,29.88,ENE,63,3.0,-999.0,84,-99.99,,,0.13,weatherlink.com 1.10,2013-03-15 20:41:00,
2013-03-15 15:58:00,34.2,30.0,29.85,East,86,2.0,-999.0,84,-99.99,,,0.13,weatherlink.com 1.10,2013-03-15 20:58:00,
2013-03-15 16:14:00,34.2,30.0,29.87,NE,48,5.0,-999.0,83,-99.99,,,0.13,weatherlink.com 1.10,2013-03-15 21:14:00,
2013-03-15 16:30:00,34.2,29.0,29.86,ENE,77,10.0,-999.0,82,-99.99,,,0.13,weatherlink.com 1.10,2013-03-15 21:30:00,
2013-03-15 16:47:00,34.1,29.0,29.86,NNW,336,4.0,-999.0,82,-99.99,,,0.13,weatherlink.com 1.10,2013-03-15 21:47:00,
2013-03-15 17:03:00,34.3,29.0,29.85,NE,56,3.0,-999.0,81,-99.99,,,0.13,weatherlink.com 1.10,2013-03-15 22:03:00,
2013-03-15 17:19:00,34.3,29.0,29.86,ENE,57,3.0,-999.0,82,-99.99,,,0.13,weatherlink.com 1.10,2013-03-15 22:19:00,
2013-03-15 17:36:00,34.1,29.0,29.85,East,88,5.0,-999.0,83,-99.99,,,0.13,weatherlink.com 1.10,2013-03-15 22:36:00,
2013-03-15 17:52:00,33.4,29.0,29.84,North,4,4.0,-999.0,83,-99.99,,,0.13,weatherlink.com 1.10,2013-03-15 22:52:00,
2013-03-15 18:09:00,32.9,29.0,29.85,NE,52,3.0,-999.0,85,-99.99,,,0.13,weatherlink.com 1.10,2013-03-15 23:09:00,
2013-03-15 18:25:00,32.7,29.0,29.84,North,350,2.0,-999.0,86,-99.99,,,0.13,weatherlink.com 1.10,2013-03-15 23:25:00,
2013-03-15 18:58:00,32.0,28.0,29.84,NNE,19,5.0,-999.0,85,-99.99,,,0.13,weatherlink.com 1.10,2013-03-15 23:58:00,
2013-03-15 19:14:00,31.6,28.0,29.84,NNE,33,3.0,-999.0,85,-99.99,,,0.13,weatherlink.com 1.10,2013-03-16 00:14:00,
2013-03-15 19:30:00,31.4,27.0,29.87,NNE,13,7.0,-999.0,85,-99.99,,,0.13,weatherlink.com 1.10,2013-03-16 00:30:00,
2013-03-15 19:47:00,31.0,27.0,29.87,North,358,4.0,-999.0,85,-99.99,,,0.13,weatherlink.com 1.10,2013-03-16 00:47:00,
2013-03-15 20:03:00,30.4,27.0,29.87,NNE,12,10.0,-999.0,86,-99.99,,,0.13,weatherlink.com 1.10,2013-03-16 01:03:00,
2013-03-15 20:19:00,30.0,26.0,29.87,ENE,70,3.0,-999.0,86,-99.99,,,0.13,weatherlink.com 1.10,2013-03-16 01:19:00,
2013-03-15 20:35:00,29.6,26.0,29.87,East,81,4.0,-999.0,87,-99.99,,,0.13,weatherlink.com 1.10,2013-03-16 01:35:00,
2013-03-15 20:52:00,29.4,26.0,29.89,North,349,4.0,-999.0,87,-99.99,,,0.13,weatherlink.com 1.10,2013-03-16 01:52:00,
2013-03-15 21:08:00,28.7,25.0,29.90,NNE,12,9.0,-999.0,87,-99.99,,,0.13,weatherlink.com 1.10,2013-03-16 02:08:00,
2013-03-15 21:25:00,28.1,24.0,29.90,NNW,347,11.0,-999.0,86,-99.99,,,0.13,weatherlink.com 1.10,2013-03-16 02:25:00,
2013-03-15 21:41:00,27.8,24.0,29.91,NW,306,3.0,-999.0,86,-99.99,,,0.13,weatherlink.com 1.10,2013-03-16 02:41:00,
2013-03-15 21:57:00,27.7,24.0,29.91,North,6,6.0,-999.0,86,-99.99,,,0.13,weatherlink.com 1.10,2013-03-16 02:57:00,
2013-03-15 22:14:00,27.2,24.0,29.92,North,6,5.0,-999.0,86,-99.99,,,0.13,weatherlink.com 1.10,2013-03-16 03:14:00,
2013-03-15 22:30:00,26.5,23.0,29.92,NNE,16,9.0,-999.0,86,-99.99,,,0.13,weatherlink.com 1.10,2013-03-16 03:30:00,
2013-03-15 22:46:00,26.2,23.0,29.93,North,351,6.0,-999.0,87,-99.99,,,0.13,weatherlink.com 1.10,2013-03-16 03:46:00,
2013-03-15 23:03:00,25.8,22.0,29.93,North,360,10.0,-999.0,87,-99.99,,,0.13,weatherlink.com 1.10,2013-03-16 04:03:00,
2013-03-15 23:19:00,25.6,22.0,29.93,NNW,343,6.0,-999.0,87,-99.99,,,0.13,weatherlink.com 1.10,2013-03-16 04:19:00,
2013-03-15 23:36:00,25.1,22.0,29.93,North,2,5.0,-999.0,87,-99.99,,,0.13,weatherlink.com 1.10,2013-03-16 04:36:00,
2013-03-15 23:52:00,24.8,21.0,29.93,NNW,340,4.0,-999.0,87,-99.99,,,0.13,weatherlink.com 1.10,2013-03-16 04:52:00,